Location: Newark
(13.6797°N, 8.5297°E)
Time: 14:15:27
(UTC+00:00)

Vanguard 3 - Visible Passes

Search period start: 20 January 2020 00:00
Search period end: 30 January 2020 00:00
Orbit: 508 x 3263 km, 33.3° (Epoch: 19 January)

Date Brightness Start Highest point End Pass type
(mag) Time Alt. Az. Time Alt. Az. Time Alt. Az.
20 Jan 10.3 17:36:59 10° WSW 17:56:41 59° NNW 18:11:51 11° NE visible
20 Jan 10.1 19:59:38 10° WNW 20:14:50 33° NNW 20:16:25 32° N visible
21 Jan 10.2 18:39:21 10° W 18:57:26 42° NNW 19:06:36 23° NE visible
21 Jan 10.5 21:02:53 10° WNW 21:11:10 25° NNW 21:11:10 25° NNW visible
22 Jan 10.5 17:20:15 10° W 17:39:39 55° NNW 17:55:39 10° NE visible
22 Jan 10.1 19:42:46 10° WNW 19:58:34 34° N 20:01:22 32° N visible
22 Jan 11.1 22:04:34 10° NW 22:05:55 13° NW 22:05:55 13° NW visible
23 Jan 10.3 18:22:39 10° W 18:40:48 41° NNW 18:51:32 19° NE visible
23 Jan 10.3 20:45:43 10° WNW 20:56:06 29° NNW 20:56:06 29° NNW visible
24 Jan 10.1 19:25:53 10° WNW 19:42:18 35° N 19:46:17 31° NNE visible
24 Jan 10.9 21:47:10 10° NW 21:50:50 18° NW 21:50:50 18° NW visible
25 Jan 10.4 18:06:03 10° WNW 18:24:11 40° NNW 18:36:27 16° NE visible
25 Jan 10.2 20:28:28 10° NW 20:41:01 33° NNW 20:41:01 33° NNW visible
26 Jan 10.1 19:08:59 10° WNW 19:25:59 36° N 19:31:12 30° NNE visible
26 Jan 10.7 21:29:42 10° NW 21:35:46 24° NW 21:35:46 24° NW visible
27 Jan 10.5 17:49:30 10° WNW 18:07:34 39° N 18:21:24 13° NE visible
27 Jan 10.0 20:11:10 10° NW 20:25:58 38° N 20:25:58 38° N visible
27 Jan 11.2 22:30:02 10° NW 22:30:32 11° NW 22:30:32 11° NW visible
28 Jan 10.1 18:52:04 10° WNW 19:09:38 38° N 19:16:12 28° NE visible
28 Jan 10.4 21:12:11 10° NW 21:20:46 31° NW 21:20:46 31° NW visible
29 Jan 10.6 17:33:01 10° WNW 17:50:59 39° N 18:06:25 10° ENE visible
29 Jan 9.9 19:53:50 10° NW 20:11:01 43° N 20:11:01 43° N visible
29 Jan 11.0 22:12:35 10° WNW 22:15:35 17° NW 22:15:35 17° NW visible
